Orbital Elements at Epoch 2459200.5 (2020-Dec-17.0) TDB
Reference: JPL 19 (heliocentric ecliptic J2000)
Element | Value | Uncertainty (1-sigma) | Units |
e | .1293976133233899 | 4.016e-08 | |
a | 2.218289538359432 | 7.9485e-09 | au |
q | 1.931248166435477 | 8.8066e-08 | au |
i | 5.326947378521253 | 4.5448e-06 | deg |
node | 274.8728363178586 | 5.0912e-05 | deg |
peri | 78.14209063865421 | 5.5159e-05 | deg |
M | 156.9984413379605 | 1.9246e-05 | deg |
tp | 2458674.217882427424 (2019-Jul-09.71788243) | 6.4468e-05 | TDB |
period | 1206.773524065029 3.30 | 6.4861e-06 1.776e-08 | d yr |
n | .2983161237970621 | 1.6034e-09 | deg/d |
Q | 2.505330910283387 | 8.977e-09 | au |
|
| | Orbit Determination Parameters
Additional Information
|